Change the Weather History Date:

Monday, May 27, 2013

  Actual Average (KLJF) Record (KLJF)
Temperature  
Mean Temperature 60 °F -  
Max Temperature 66 °F 74 °F 97 °F (1969)
Min Temperature 55 °F 51 °F 35 °F (1965)
Degree Days  
Heating Degree Days 4    
Growing Degree Days 10 (Base 50)    
Moisture  
Dew Point 52 °F    
Average Humidity 77    
Maximum Humidity 94    
Minimum Humidity 64    
Precipitation  
Precipitation 0.00 in - - ()
Sea Level Pressure  
Sea Level Pressure 29.91 in    
Wind  
Wind Speed 13 mph (ESE)    
Max Wind Speed 18 mph    
Max Gust Speed 26 mph    
Visibility 7 miles    
Events      
Averages and records for this station are not official NWS values.
T = Trace of Precipitation, MM = Missing Value Source: NWS Daily Summary

Daily Weather History Graph

Daily Weather History Graph

Search for Another Location

Airport or City:

Trip Planner

Search our weather history database for the weather conditions in past years. The results will help you decide how hot, cold, wet, or windy it might be!

Date:

Astronomy

May. 27, 2013 Rise Set
Actual Time 5:39 AM CDT 8:56 PM CDT
Civil Twilight 5:03 AM CDT 9:32 PM CDT
Nautical Twilight 4:17 AM CDT 10:19 PM CDT
Astronomical Twilight 3:19 AM CDT 11:17 PM CDT
Moon 11:32 PM CDT (5/27) 8:20 AM CDT (5/27)
Length of Visible Light 16h 28m
Length of Day
15h 16m
Waning Gibbous, 91% of the Moon is Illuminated
May 27
Waning Gibbous
May 31
Last Quarter
Jun 8
New
Jun 16
First Quarter
Jun 23
Full

Hourly Weather History & Observations

Time (CDT) Temp. Dew Point Humidity Pressure Visibility Wind Dir Wind Speed Gust Speed Precip Events Conditions
12:16 AM 57.2 °F 48.2 °F 72% 30.03 in 10.0 mi ESE 17.3 mph 21.9 mph N/A   Overcast
12:35 AM 57.2 °F 48.2 °F 72% 30.02 in 10.0 mi ESE 13.8 mph 18.4 mph N/A   Overcast
12:55 AM 57.2 °F 48.2 °F 72% 30.01 in 10.0 mi ESE 16.1 mph 21.9 mph N/A   Overcast
1:15 AM 57.2 °F 48.2 °F 72% 30.01 in 10.0 mi ESE 16.1 mph - N/A   Overcast
1:35 AM 57.2 °F 48.2 °F 72% 30.02 in 10.0 mi ESE 11.5 mph - N/A   Overcast
1:56 AM 55.4 °F 48.2 °F 77% 30.02 in 10.0 mi ESE 17.3 mph 20.7 mph N/A   Overcast
2:15 AM 55.4 °F 48.2 °F 77% 30.02 in 7.0 mi SE 17.3 mph 24.2 mph N/A   Overcast
2:35 AM 55.4 °F 48.2 °F 77% 30.01 in 7.0 mi ESE 13.8 mph - N/A   Overcast
2:56 AM 55.4 °F 50.0 °F 82% 30.00 in 7.0 mi ESE 13.8 mph 19.6 mph N/A   Overcast
3:15 AM 55.4 °F 51.8 °F 88% 29.97 in 7.0 mi East 12.7 mph - N/A   Overcast
3:36 AM 55.4 °F 51.8 °F 88% 29.96 in 7.0 mi East 11.5 mph - N/A   Overcast
3:55 AM 55.4 °F 51.8 °F 88% 29.96 in 7.0 mi East 10.4 mph - N/A   Overcast
4:16 AM 55.4 °F 51.8 °F 88% 29.96 in 7.0 mi East 10.4 mph - N/A   Overcast
4:35 AM 55.4 °F 51.8 °F 88% 29.96 in 7.0 mi East 11.5 mph - N/A   Overcast
4:55 AM 55.4 °F 51.8 °F 88% 29.98 in 7.0 mi East 10.4 mph - N/A   Overcast
5:16 AM 55.4 °F 51.8 °F 88% 29.98 in 4.0 mi East 10.4 mph - N/A   Haze
5:35 AM 55.4 °F 51.8 °F 88% 29.98 in 2.5 mi East 10.4 mph - N/A   Overcast
5:55 AM 55.4 °F 51.8 °F 88% 29.97 in 3.0 mi East 9.2 mph - N/A   Overcast
6:15 AM 55.4 °F 51.8 °F 88% 29.96 in 3.0 mi East 9.2 mph - N/A   Overcast
6:35 AM 55.4 °F 51.8 °F 88% 29.95 in 1.8 mi East 8.1 mph - N/A   Overcast
6:56 AM 55.4 °F 51.8 °F 88% 29.95 in 2.0 mi East 11.5 mph - N/A   Overcast
7:15 AM 55.4 °F 51.8 °F 88% 29.94 in 2.5 mi East 11.5 mph 16.1 mph N/A   Overcast
7:35 AM 55.4 °F 51.8 °F 88% 29.94 in 3.0 mi East 13.8 mph - N/A   Overcast
7:56 AM 55.4 °F 51.8 °F 88% 29.94 in 3.0 mi East 16.1 mph 19.6 mph N/A   Haze
8:15 AM 55.4 °F 51.8 °F 88% 29.92 in 2.5 mi East 15.0 mph 21.9 mph N/A   Overcast
8:35 AM 55.4 °F 51.8 °F 88% 29.91 in 3.0 mi East 15.0 mph 26.5 mph N/A   Overcast
8:56 AM 55.4 °F 51.8 °F 88% 29.91 in 4.0 mi East 15.0 mph - N/A   Overcast
9:15 AM 57.2 °F 51.8 °F 82% 29.92 in 4.0 mi East 18.4 mph 23.0 mph N/A   Haze
9:35 AM 57.2 °F 51.8 °F 82% 29.93 in 4.0 mi East 16.1 mph 20.7 mph N/A   Haze
9:56 AM 57.2 °F 51.8 °F 82% 29.92 in 5.0 mi ESE 16.1 mph - N/A   Haze
10:15 AM 57.2 °F 51.8 °F 82% 29.93 in 5.0 mi ESE 16.1 mph 20.7 mph N/A   Haze
10:35 AM 57.2 °F 51.8 °F 82% 29.92 in 5.0 mi East 13.8 mph - N/A   Haze
10:56 AM 57.2 °F 51.8 °F 82% 29.92 in 5.0 mi East 12.7 mph 17.3 mph N/A   Haze
11:15 AM 57.2 °F 51.8 °F 82% 29.92 in 5.0 mi East 13.8 mph - N/A   Haze
11:35 AM 57.2 °F 51.8 °F 82% 29.90 in 7.0 mi East 12.7 mph - N/A   Overcast
11:56 AM 59.0 °F 51.8 °F 77% 29.88 in 7.0 mi East 10.4 mph - N/A   Overcast
12:15 PM 60.8 °F 53.6 °F 77% 29.88 in 5.0 mi East 11.5 mph - N/A   Haze
12:35 PM 60.8 °F 53.6 °F 77% 29.88 in 5.0 mi ENE 12.7 mph 19.6 mph N/A   Haze
12:55 PM 60.8 °F 51.8 °F 72% 29.88 in 5.0 mi East 15.0 mph - N/A   Haze
1:15 PM 60.8 °F 53.6 °F 77% 29.88 in 7.0 mi East 15.0 mph - N/A   Overcast
1:35 PM 62.6 °F 53.6 °F 72% 29.88 in 7.0 mi East 11.5 mph 20.7 mph N/A   Overcast
1:55 PM 62.6 °F 51.8 °F 68% 29.88 in 7.0 mi ESE 15.0 mph - N/A   Overcast
2:15 PM 62.6 °F 51.8 °F 68% 29.88 in 10.0 mi East 13.8 mph - N/A   Overcast
2:35 PM 62.6 °F 51.8 °F 68% 29.89 in 10.0 mi ESE 11.5 mph - N/A   Overcast
2:55 PM 62.6 °F 53.6 °F 72% 29.89 in 10.0 mi ESE 11.5 mph - N/A   Overcast
3:15 PM 64.4 °F 53.6 °F 68% 29.88 in 10.0 mi ESE 13.8 mph - N/A   Overcast
3:35 PM 64.4 °F 53.6 °F 68% 29.89 in 10.0 mi East 10.4 mph - N/A   Overcast
3:55 PM 64.4 °F 51.8 °F 64% 29.88 in 10.0 mi East 10.4 mph - N/A   Overcast
4:15 PM 64.4 °F 51.8 °F 64% 29.88 in 10.0 mi East 10.4 mph - N/A   Overcast
4:35 PM 64.4 °F 53.6 °F 68% 29.87 in 10.0 mi East 10.4 mph - N/A   Overcast
4:55 PM 64.4 °F 53.6 °F 68% 29.86 in 10.0 mi East 11.5 mph - N/A   Overcast
5:15 PM 64.4 °F 53.6 °F 68% 29.86 in 10.0 mi East 12.7 mph - N/A   Overcast
5:35 PM 66.2 °F 53.6 °F 64% 29.84 in 10.0 mi East 13.8 mph - N/A   Mostly Cloudy
5:55 PM 64.4 °F 51.8 °F 64% 29.85 in 10.0 mi ESE 15.0 mph - N/A   Overcast
6:15 PM 64.4 °F 51.8 °F 64% 29.84 in 10.0 mi ESE 12.7 mph 18.4 mph N/A   Overcast
6:35 PM 64.4 °F 51.8 °F 64% 29.84 in 10.0 mi East 12.7 mph 16.1 mph N/A   Overcast
6:55 PM 64.4 °F 51.8 °F 64% 29.84 in 10.0 mi East 9.2 mph - N/A   Overcast
7:15 PM 64.4 °F 51.8 °F 64% 29.84 in 10.0 mi East 11.5 mph - N/A   Overcast
7:35 PM 64.4 °F 51.8 °F 64% 29.84 in 10.0 mi ESE 12.7 mph 19.6 mph N/A   Overcast
7:55 PM 62.6 °F 51.8 °F 68% 29.85 in 10.0 mi ESE 13.8 mph - N/A   Overcast
8:15 PM 62.6 °F 51.8 °F 68% 29.86 in 10.0 mi ESE 11.5 mph - N/A   Overcast
8:35 PM 62.6 °F 51.8 °F 68% 29.85 in 10.0 mi ESE 9.2 mph - N/A   Overcast
8:55 PM 62.6 °F 51.8 °F 68% 29.84 in 10.0 mi ESE 11.5 mph - N/A   Overcast
9:15 PM 60.8 °F 51.8 °F 72% 29.84 in 10.0 mi ESE 9.2 mph - N/A   Overcast
9:35 PM 60.8 °F 53.6 °F 77% 29.83 in 10.0 mi East 11.5 mph - N/A   Overcast
9:55 PM 60.8 °F 53.6 °F 77% 29.83 in 10.0 mi East 9.2 mph - N/A   Overcast
10:15 PM 60.8 °F 53.6 °F 77% 29.85 in 10.0 mi ESE 9.2 mph - N/A   Overcast
10:36 PM 60.8 °F 53.6 °F 77% 29.86 in 10.0 mi ESE 15.0 mph - N/A   Overcast
10:55 PM 60.8 °F 53.6 °F 77% 29.86 in 10.0 mi ESE 11.5 mph - N/A   Overcast
11:15 PM 59.0 °F 53.6 °F 82% 29.84 in 4.0 mi East 11.5 mph 16.1 mph N/A   Haze
11:36 PM 59.0 °F 55.4 °F 88% 29.84 in 2.5 mi ESE 10.4 mph - N/A   Overcast
11:55 PM 57.2 °F 55.4 °F 94% 29.82 in 3.0 mi East 10.4 mph - N/A   Overcast